Paso Robles, CA

4:20 AM PST on February 23, 2017 (GMT -0800)
Paso Robles Municipal

Weather History for KPRB - March, 2013

Change the Weather History Date:

Tuesday, March 5, 2013

  Actual Average Record
Temperature  
Mean Temperature 51 °F 52 °F  
Max Temperature 61 °F 65 °F 83 °F (2012)
Min Temperature 41 °F 40 °F 27 °F (1977)
Degree Days  
Heating Degree Days 14 13  
Month to date heating degree days 39 65  
Since 1 July heating degree days 2048 2158  
Cooling Degree Days 0 0  
Month to date cooling degree days 0 0  
Year to date cooling degree days 0 0  
Growing Degree Days 2 (Base 50)    
Moisture  
Dew Point 41 °F    
Average Humidity 64    
Maximum Humidity 89    
Minimum Humidity 39    
Precipitation  
Precipitation 0.00 in 0.09 in 2.75 in (1987)
Month to date precipitation T 0.49  
Year to date precipitation 0.96 5.83  
Since 1 July precipitation 4.17  
Sea Level Pressure  
Sea Level Pressure 30.05 in    
Wind  
Wind Speed 9 mph (SW)    
Max Wind Speed 18 mph    
Max Gust Speed 23 mph    
Visibility 10 miles    
Events      
T = Trace of Precipitation, MM = Missing Value Source: NWS Daily Summary

Daily Weather History Graph

Daily Weather History Graph

Search for Another Location

Airport or City:

Trip Planner

Search our weather history database for the weather conditions in past years. The results will help you decide how hot, cold, wet, or windy it might be!

Date:

Astronomy

Mar. 05, 2013 Rise Set
Actual Time 6:26 AM PST 6:01 PM PST
Civil Twilight 6:01 AM PST 6:27 PM PST
Nautical Twilight 5:31 AM PST 6:56 PM PST
Astronomical Twilight 5:02 AM PST 7:26 PM PST
Moon 1:35 AM PST (3/5) 11:54 AM PST (3/5)
Length of Visible Light 12h 26m
Length of Day
11h 35m
Last Quarter, 39% of the Moon is Illuminated
Mar 5
Last Quarter
Mar 11
New
Mar 19
First Quarter
Mar 27
Full
Apr 2
Last Quarter

Hourly Weather History & Observations

Time (PST) Temp. Windchill Dew Point Humidity Pressure Visibility Wind Dir Wind Speed Gust Speed Precip Events Conditions
1:23 AM 44.6 °F 40.2 °F 42.8 °F 93% 30.07 in 10.0 mi SSW 8.1 mph - N/A   Scattered Clouds
1:31 AM 46.4 °F 41.5 °F 44.6 °F 93% 30.07 in 10.0 mi SSW 10.4 mph - N/A   Mostly Cloudy
1:53 AM 48.0 °F - 45.0 °F 89% 30.06 in 10.0 mi SSW 6.9 mph - N/A   Overcast
2:03 AM 48.2 °F - 44.6 °F 87% 30.07 in 10.0 mi SSW 5.8 mph - N/A   Overcast
2:53 AM 48.0 °F - 45.0 °F 89% 30.05 in 10.0 mi South 6.9 mph - N/A   Overcast
5:26 AM 48.2 °F - 42.8 °F 82% 30.07 in 10.0 mi SW 8.1 mph - N/A   Overcast
5:53 AM 48.0 °F - 43.0 °F 83% 30.07 in 10.0 mi SW 9.2 mph - N/A   Overcast
6:53 AM 48.0 °F - 42.1 °F 80% 30.07 in 10.0 mi SSW 6.9 mph - N/A   Overcast
7:53 AM 48.0 °F - 42.1 °F 80% 30.09 in 10.0 mi SW 5.8 mph - N/A   Overcast
8:53 AM 48.9 °F - 41.0 °F 74% 30.09 in 10.0 mi WSW 4.6 mph - N/A   Overcast
9:28 AM 50.0 °F - 42.8 °F 76% 30.09 in 10.0 mi Calm Calm - N/A   Overcast
9:53 AM 51.1 °F - 42.1 °F 71% 30.09 in 10.0 mi West 4.6 mph - N/A   Overcast
10:19 AM 51.8 °F - 42.8 °F 71% 30.08 in 10.0 mi West 4.6 mph - N/A   Partly Cloudy
10:53 AM 55.9 °F - 42.1 °F 60% 30.07 in 10.0 mi Variable 4.6 mph - N/A   Clear
11:53 AM 59.0 °F - 39.9 °F 49% 30.05 in 10.0 mi SSW 13.8 mph - N/A   Clear
12:53 PM 60.1 °F - 37.0 °F 42% 30.03 in 10.0 mi SSW 12.7 mph - N/A   Clear
1:53 PM 60.1 °F - 35.1 °F 39% 30.00 in 10.0 mi SSW 11.5 mph 19.6 mph N/A   Clear
2:53 PM 60.1 °F - 39.0 °F 46% 29.99 in 10.0 mi WSW 16.1 mph - N/A   Clear
3:53 PM 55.9 °F - 41.0 °F 57% 30.00 in 10.0 mi SSW 12.7 mph 20.7 mph N/A   Clear
4:53 PM 53.1 °F - 41.0 °F 64% 30.00 in 10.0 mi SW 11.5 mph - N/A   Scattered Clouds
5:03 PM 51.8 °F - 41.0 °F 67% 30.01 in 10.0 mi SW 11.5 mph - N/A   Mostly Cloudy
5:53 PM 50.0 °F - 41.0 °F 71% 30.02 in 10.0 mi SW 9.2 mph - N/A   Overcast
6:53 PM 48.9 °F - 39.0 °F 69% 30.04 in 10.0 mi WSW 13.8 mph - N/A   Overcast
7:53 PM 48.0 °F - 39.0 °F 71% 30.03 in 10.0 mi SW 6.9 mph - N/A   Overcast
8:53 PM 48.9 °F - 39.0 °F 69% 30.05 in 10.0 mi SSW 11.5 mph - N/A   Overcast
9:53 PM 48.9 °F - 39.0 °F 69% 30.05 in 10.0 mi South 10.4 mph - N/A   Overcast
10:53 PM 48.0 °F - 39.0 °F 71% 30.05 in 10.0 mi SSW 8.1 mph - N/A   Overcast
11:42 PM 46.4 °F 42.9 °F 37.4 °F 71% 30.04 in 10.0 mi SSW 6.9 mph - N/A   Scattered Clouds
11:53 PM 46.0 °F 41.4 °F 37.9 °F 73% 30.04 in 10.0 mi South 9.2 mph - N/A   Clear